Location: Oberwangen
(47.4286°N, 8.9679°E)
Time: 05:07:19
(UTC+00:00)

ALOS 2 - Pass Details

Date: 20 June 2021
Orbit: 630 x 632 km, 97.9° (Epoch: 28 July)

Event Time Altitude Azimuth Distance (km) Brightness Sun altitude
Exits shadow 23:35:04 27° 236° (SW) 1,228 3.7 -19.1°
Maximum altitude 23:36:13 31° 264° (W) 1,124 3.8 -19.1°
Drops below altitude 10° 23:40:08 10° 327° (NNW) 2,025 6.0 -19.1°
Sets 23:42:34 0° 338° (NNW) 2,938 7.2 -19.0°
